TimeEDT,TemperatureF,Dew PointF,Humidity,Sea Level PressureIn,VisibilityMPH,Wind Direction,Wind SpeedMPH,Gust SpeedMPH,PrecipitationIn,Events,Conditions,WindDirDegrees,DateUTC
12:15 AM,53.6,46.4,77,29.87,10.0,SE,9.2,16.1,N/A,,Overcast,130,2012-10-20 04:15:00
12:35 AM,53.6,46.4,77,29.87,10.0,SE,10.4,-,N/A,,Overcast,140,2012-10-20 04:35:00
12:55 AM,53.6,48.2,82,29.85,10.0,SE,6.9,-,0.01,,Overcast,130,2012-10-20 04:55:00
1:15 AM,53.6,48.2,82,29.85,5.0,South,6.9,-,0.01,,Overcast,170,2012-10-20 05:15:00
1:35 AM,53.6,48.2,82,29.84,5.0,Calm,Calm,-,0.02,,Overcast,0,2012-10-20 05:35:00
1:55 AM,53.6,48.2,82,29.83,8.0,SE,12.7,19.6,0.02,,Overcast,140,2012-10-20 05:55:00
2:15 AM,53.6,48.2,82,29.82,9.0,SE,11.5,19.6,0.01,,Overcast,140,2012-10-20 06:15:00
2:35 AM,53.6,48.2,82,29.81,10.0,SE,9.2,18.4,0.01,,Overcast,140,2012-10-20 06:35:00
2:55 AM,53.6,48.2,82,29.79,10.0,SSE,16.1,21.9,0.01,,Overcast,150,2012-10-20 06:55:00
3:15 AM,53.6,50.0,88,29.78,10.0,SSE,13.8,24.2,N/A,,Overcast,150,2012-10-20 07:15:00
3:35 AM,55.4,50.0,82,29.78,10.0,SSE,11.5,24.2,N/A,,Overcast,150,2012-10-20 07:35:00
3:55 AM,55.4,50.0,82,29.78,10.0,SSE,11.5,23.0,N/A,,Overcast,150,2012-10-20 07:55:00
4:15 AM,55.4,51.8,88,29.77,10.0,SSE,15.0,20.7,N/A,,Overcast,160,2012-10-20 08:15:00
4:35 AM,55.4,51.8,88,29.78,10.0,SSE,10.4,-,N/A,,Overcast,160,2012-10-20 08:35:00
4:55 AM,55.4,51.8,88,29.76,10.0,SSE,15.0,21.9,N/A,,Overcast,150,2012-10-20 08:55:00
5:15 AM,55.4,51.8,88,29.77,10.0,SSE,10.4,18.4,N/A,,Overcast,150,2012-10-20 09:15:00
5:35 AM,55.4,51.8,88,29.77,10.0,SSE,13.8,18.4,0.01,,Overcast,150,2012-10-20 09:35:00
5:55 AM,55.4,51.8,88,29.76,10.0,SE,13.8,21.9,0.01,,Overcast,130,2012-10-20 09:55:00
6:16 AM,57.2,51.8,82,29.76,10.0,SSE,11.5,18.4,N/A,,Overcast,150,2012-10-20 10:16:00
6:35 AM,57.2,53.6,88,29.77,10.0,SSE,9.2,17.3,N/A,,Overcast,150,2012-10-20 10:35:00
6:55 AM,57.2,53.6,88,29.76,10.0,SE,15.0,21.9,N/A,,Overcast,140,2012-10-20 10:55:00
7:15 AM,57.2,53.6,88,29.75,10.0,SE,10.4,-,N/A,,Overcast,140,2012-10-20 11:15:00
7:35 AM,57.2,53.6,88,29.75,10.0,SSE,13.8,17.3,N/A,,Overcast,150,2012-10-20 11:35:00
7:55 AM,57.2,53.6,88,29.75,10.0,SSE,12.7,-,N/A,,Overcast,150,2012-10-20 11:55:00
8:15 AM,57.2,53.6,88,29.74,10.0,SSE,13.8,19.6,N/A,,Overcast,150,2012-10-20 12:15:00
8:55 AM,59.0,53.6,82,29.75,10.0,SSE,13.8,19.6,0.01,,Overcast,150,2012-10-20 12:55:00
9:15 AM,59.0,55.4,88,29.74,8.0,SE,12.7,21.9,N/A,,Overcast,140,2012-10-20 13:15:00
9:35 AM,59.0,55.4,88,29.72,10.0,SE,12.7,20.7,0.01,,Overcast,140,2012-10-20 13:35:00
10:15 AM,60.8,55.4,82,29.72,10.0,SSE,12.7,23.0,N/A,,Overcast,150,2012-10-20 14:15:00
10:35 AM,60.8,57.2,88,29.71,10.0,SSE,13.8,19.6,N/A,,Overcast,150,2012-10-20 14:35:00
10:55 AM,60.8,57.2,88,29.71,10.0,SSE,13.8,-,N/A,,Overcast,160,2012-10-20 14:55:00
11:15 AM,62.6,57.2,82,29.69,10.0,SSE,13.8,-,N/A,,Overcast,160,2012-10-20 15:15:00
11:35 AM,62.6,57.2,82,29.69,10.0,SSE,12.7,19.6,N/A,,Overcast,160,2012-10-20 15:35:00
11:55 AM,62.6,57.2,82,29.67,10.0,SSE,11.5,18.4,N/A,,Overcast,150,2012-10-20 15:55:00
12:15 PM,62.6,57.2,82,29.65,10.0,SE,13.8,18.4,0.02,,Overcast,140,2012-10-20 16:15:00
12:35 PM,62.6,57.2,82,29.64,10.0,SE,10.4,18.4,0.03,,Overcast,140,2012-10-20 16:35:00
12:55 PM,62.6,57.2,82,29.64,10.0,SE,12.7,17.3,0.06,,Overcast,140,2012-10-20 16:55:00
1:15 PM,62.6,57.2,82,29.61,9.0,SE,11.5,20.7,0.05,,Overcast,130,2012-10-20 17:15:00
1:35 PM,62.6,57.2,82,29.58,9.0,ESE,15.0,20.7,0.11,,Overcast,120,2012-10-20 17:35:00
1:55 PM,62.6,57.2,82,29.59,10.0,SE,12.7,19.6,0.12,,Overcast,140,2012-10-20 17:55:00
2:15 PM,62.6,59.0,88,29.59,10.0,SE,11.5,16.1,N/A,,Overcast,140,2012-10-20 18:15:00
2:35 PM,62.6,57.2,82,29.58,10.0,SE,9.2,-,N/A,,Overcast,130,2012-10-20 18:35:00
2:55 PM,62.6,57.2,82,29.57,10.0,SE,8.1,-,N/A,,Overcast,130,2012-10-20 18:55:00
3:15 PM,62.6,57.2,82,29.57,10.0,SE,6.9,-,N/A,,Overcast,140,2012-10-20 19:15:00
3:55 PM,62.6,59.0,88,29.57,10.0,SSE,10.4,-,N/A,,Overcast,160,2012-10-20 19:55:00
4:15 PM,62.6,59.0,88,29.57,10.0,SSE,10.4,-,N/A,,Overcast,150,2012-10-20 20:15:00
4:35 PM,62.6,59.0,88,29.57,10.0,SSE,11.5,-,N/A,,Overcast,160,2012-10-20 20:35:00
4:55 PM,62.6,57.2,82,29.57,10.0,South,10.4,-,N/A,,Overcast,170,2012-10-20 20:55:00
5:15 PM,62.6,57.2,82,29.57,10.0,South,6.9,-,N/A,,Overcast,170,2012-10-20 21:15:00
5:35 PM,62.6,57.2,82,29.57,10.0,SSE,9.2,-,N/A,,Overcast,160,2012-10-20 21:35:00
5:55 PM,62.6,59.0,88,29.56,10.0,SSE,10.4,-,N/A,,Overcast,160,2012-10-20 21:55:00
6:15 PM,62.6,59.0,88,29.56,10.0,SSE,10.4,-,N/A,,Overcast,150,2012-10-20 22:15:00
6:35 PM,62.6,59.0,88,29.55,10.0,SSE,10.4,-,N/A,,Overcast,160,2012-10-20 22:35:00
6:55 PM,62.6,59.0,88,29.55,10.0,South,8.1,-,N/A,,Overcast,170,2012-10-20 22:55:00
7:15 PM,62.6,59.0,88,29.54,10.0,SSE,10.4,-,0.01,,Mostly Cloudy,150,2012-10-20 23:15:00
7:35 PM,62.6,59.0,88,29.54,10.0,SSE,8.1,-,0.01,,Overcast,160,2012-10-20 23:35:00
7:55 PM,62.6,59.0,88,29.54,10.0,SSE,8.1,-,0.01,,Overcast,160,2012-10-20 23:55:00
8:15 PM,62.6,59.0,88,29.53,10.0,SSE,6.9,-,N/A,,Overcast,160,2012-10-21 00:15:00
8:35 PM,62.6,59.0,88,29.53,10.0,South,6.9,-,N/A,,Overcast,170,2012-10-21 00:35:00
8:55 PM,62.6,59.0,88,29.52,10.0,SSE,8.1,-,N/A,,Overcast,150,2012-10-21 00:55:00
9:15 PM,62.6,59.0,88,29.52,10.0,SSE,8.1,-,N/A,,Overcast,160,2012-10-21 01:15:00
9:35 PM,62.6,57.2,82,29.52,10.0,SSE,5.8,-,N/A,,Overcast,160,2012-10-21 01:35:00
9:55 PM,62.6,59.0,88,29.52,10.0,SSE,6.9,-,N/A,,Overcast,150,2012-10-21 01:55:00
10:15 PM,60.8,57.2,88,29.52,10.0,SSW,3.5,-,N/A,,Overcast,200,2012-10-21 02:15:00
10:35 PM,60.8,57.2,88,29.52,10.0,South,3.5,-,N/A,,Overcast,170,2012-10-21 02:35:00
10:55 PM,60.8,57.2,88,29.52,5.0,SSE,5.8,-,0.01,,Overcast,160,2012-10-21 02:55:00
11:15 PM,60.8,57.2,88,29.52,10.0,South,6.9,-,N/A,,Mostly Cloudy,180,2012-10-21 03:15:00
11:35 PM,60.8,57.2,88,29.52,10.0,South,6.9,-,N/A,,Mostly Cloudy,180,2012-10-21 03:35:00
11:55 PM,60.8,57.2,88,29.52,10.0,South,5.8,-,N/A,,Clear,180,2012-10-21 03:55:00